This is the latest recevied weather packets stored in our database for station/object N4YH-13. If no packets are shown the sender has not sent any weather packets the latest 10 day(s).
| Time | Temp. | Humidity | Pressure | Rain* | Wind** | Luminosity | Snow |
|---|---|---|---|---|---|---|---|
| 1778194204 | 16.11° C | 64% | 1012.1 hPa | 0 mm | - | - | - |
| 1778194084 | 16.11° C | 64% | 1012.1 hPa | 0 mm | - | - | - |
| 1778193963 | 16.11° C | 65% | 1012.1 hPa | 0 mm | - | - | - |
| 1778193843 | 16.11° C | 67% | 1012.1 hPa | 0 mm | - | - | - |
| 1778193724 | 16.11° C | 66% | 1012.1 hPa | 0 mm | - | - | - |
| 1778193604 | 16.11° C | 67% | 1012.1 hPa | 0 mm | - | - | - |
| 1778193484 | 16.11° C | 64% | 1012.1 hPa | 0 mm | - | - | - |
| 1778193364 | 16.11° C | 66% | 1012.1 hPa | 0 mm | - | - | - |
| 1778193243 | 16.11° C | 65% | 1012.1 hPa | 0 mm | - | - | - |
| 1778193123 | 16.11° C | 68% | 1011.9 hPa | 0 mm | - | - | - |
| 1778193003 | 16.11° C | 69% | 1011.9 hPa | 0 mm | - | - | - |
| 1778192884 | 16.11° C | 65% | 1011.9 hPa | 0 mm | - | - | - |
| 1778192764 | 16.11° C | 64% | 1011.9 hPa | 0 mm | - | - | - |
| 1778192644 | 16.11° C | 66% | 1011.9 hPa | 0 mm | - | - | - |
| 1778192524 | 16.67° C | 69% | 1011.9 hPa | 0 mm | - | - | - |
| 1778192403 | 16.67° C | 66% | 1011.9 hPa | 0 mm | - | - | - |
| 1778192283 | 16.67° C | 67% | 1011.7 hPa | 0 mm | - | - | - |
| 1778192163 | 16.67° C | 66% | 1011.7 hPa | 0 mm | - | - | - |
| 1778192044 | 16.11° C | 65% | 1011.7 hPa | 0 mm | - | - | - |
| 1778191924 | 16.67° C | 65% | 1011.7 hPa | 0 mm | - | - | - |
| 1778191804 | 16.67° C | 65% | 1011.8 hPa | 0 mm | - | - | - |
| 1778191684 | 16.67° C | 64% | 1011.7 hPa | 0 mm | - | - | - |
| 1778191563 | 16.67° C | 66% | 1011.7 hPa | 0 mm | - | - | - |
| 1778191443 | 16.67° C | 66% | 1011.9 hPa | 0 mm | - | - | - |
| 1778191323 | 16.67° C | 64% | 1011.9 hPa | 0 mm | - | - | - |
* Rain latest hour (hover to see other rain measurements)
** Current wind speed in m/s (hover to see current wind gust speed)